Holdrege, NE

3:09 AM CDT on April 25, 2017 (GMT -0500)
Brewster

Weather History for KHDE - October, 2012

Change the Weather History Date:

Monday, October 8, 2012

  Actual Average Record
Temperature  
Mean Temperature 54 °F -  
Max Temperature 75 °F 70 °F 89 °F (1980)
Min Temperature 34 °F 42 °F 15 °F (2000)
Degree Days  
Heating Degree Days 10    
Growing Degree Days 4 (Base 50)    
Moisture  
Dew Point 27 °F    
Average Humidity 47    
Maximum Humidity 87    
Minimum Humidity 12    
Precipitation  
Precipitation 0.00 in - - ()
Sea Level Pressure  
Sea Level Pressure 29.89 in    
Wind  
Wind Speed 9 mph (WSW)    
Max Wind Speed 17 mph    
Max Gust Speed 22 mph    
Visibility 10 miles    
Events      
Averages and records for this station are not official NWS values.
T = Trace of Precipitation, MM = Missing Value Source: NWS Daily Summary

Daily Weather History Graph

Daily Weather History Graph

Search for Another Location

Airport or City:

Trip Planner

Search our weather history database for the weather conditions in past years. The results will help you decide how hot, cold, wet, or windy it might be!

Date:

Astronomy

Oct. 08, 2012 Rise Set
Actual Time 7:41 AM CDT 7:07 PM CDT
Civil Twilight 7:14 AM CDT 7:34 PM CDT
Nautical Twilight 6:42 AM CDT 8:06 PM CDT
Astronomical Twilight 6:10 AM CDT 8:37 PM CDT
Moon 12:21 AM CDT (10/8) 2:59 PM CDT (10/8)
Length of Visible Light 12h 20m
Length of Day
11h 25m
Last Quarter, 46% of the Moon is Illuminated
Oct 8
Last Quarter
Oct 15
New
Oct 21
First Quarter
Oct 29
Full
Nov 6
Last Quarter

Hourly Weather History & Observations

Time (CDT) Temp. Windchill Dew Point Humidity Pressure Visibility Wind Dir Wind Speed Gust Speed Precip Events Conditions
12:15 AM 39.4 °F 32.7 °F 34.5 °F 83% 30.02 in 10.0 mi SW 10.4 mph - N/A   Clear
12:35 AM 39.2 °F 33.0 °F 34.3 °F 83% 30.02 in 10.0 mi SW 9.2 mph - N/A   Clear
12:55 AM 40.1 °F 33.6 °F 34.9 °F 82% 30.02 in 10.0 mi SW 10.4 mph - N/A   Clear
1:15 AM 40.1 °F 34.1 °F 34.9 °F 82% 30.01 in 10.0 mi SW 9.2 mph - N/A   Clear
1:35 AM 40.6 °F 35.4 °F 34.9 °F 80% 30.01 in 10.0 mi SW 8.1 mph - N/A   Clear
1:55 AM 38.8 °F 33.2 °F 34.2 °F 83% 30.00 in 10.0 mi SW 8.1 mph - N/A   Clear
2:15 AM 37.6 °F 32.3 °F 33.4 °F 85% 30.00 in 10.0 mi SSW 6.9 mph - N/A   Clear
2:35 AM 37.4 °F 32.1 °F 33.4 °F 86% 30.00 in 10.0 mi SW 6.9 mph - N/A   Clear
2:55 AM 36.5 °F 31.8 °F 32.9 °F 87% 30.00 in 10.0 mi SW 5.8 mph - N/A   Clear
3:15 AM 37.8 °F 31.8 °F 33.1 °F 83% 29.99 in 10.0 mi SW 8.1 mph - N/A   Clear
3:35 AM 36.5 °F 31.0 °F 32.0 °F 84% 29.98 in 10.0 mi SSW 6.9 mph - N/A   Clear
3:55 AM 36.0 °F 29.6 °F 32.0 °F 86% 29.98 in 10.0 mi SW 8.1 mph - N/A   Clear
4:15 AM 37.8 °F 31.3 °F 32.5 °F 81% 29.97 in 10.0 mi SW 9.2 mph - N/A   Clear
4:35 AM 35.6 °F 30.7 °F 31.8 °F 86% 29.97 in 10.0 mi SW 5.8 mph - N/A   Clear
4:55 AM 36.1 °F 31.4 °F 31.1 °F 82% 29.97 in 10.0 mi SW 5.8 mph - N/A   Clear
5:15 AM 35.4 °F 32.6 °F 30.4 °F 82% 29.97 in 10.0 mi SW 3.5 mph - N/A   Clear
5:35 AM 34.9 °F 30.8 °F 28.9 °F 79% 29.96 in 10.0 mi WSW 4.6 mph - N/A   Clear
5:55 AM 35.4 °F 29.0 °F 27.3 °F 72% 29.96 in 10.0 mi WSW 8.1 mph - N/A   Clear
6:15 AM 37.4 °F 30.8 °F 26.4 °F 65% 29.96 in 10.0 mi West 9.2 mph - N/A   Clear
6:35 AM 37.6 °F 31.0 °F 25.7 °F 62% 29.95 in 10.0 mi WSW 9.2 mph - N/A   Clear
6:55 AM 38.3 °F 31.4 °F 25.7 °F 61% 29.95 in 10.0 mi WSW 10.4 mph - N/A   Clear
7:15 AM 37.6 °F 32.3 °F 25.7 °F 62% 29.94 in 10.0 mi WSW 6.9 mph - N/A   Clear
7:35 AM 37.4 °F 32.8 °F 25.7 °F 63% 29.94 in 10.0 mi WSW 5.8 mph - N/A   Clear
7:55 AM 37.4 °F 32.1 °F 25.9 °F 63% 29.94 in 10.0 mi SW 6.9 mph - N/A   Clear
8:15 AM 38.1 °F 32.3 °F 25.7 °F 61% 29.94 in 10.0 mi WSW 8.1 mph - N/A   Clear
8:35 AM 38.1 °F 31.7 °F 26.4 °F 63% 29.94 in 10.0 mi SW 9.2 mph - N/A   Clear
8:55 AM 39.6 °F 34.7 °F 27.7 °F 62% 29.94 in 10.0 mi WSW 6.9 mph - N/A   Clear
9:15 AM 41.4 °F 35.7 °F 28.9 °F 61% 29.94 in 10.0 mi SW 9.2 mph - N/A   Clear
9:35 AM 43.7 °F 38.6 °F 30.4 °F 59% 29.94 in 10.0 mi WSW 9.2 mph - N/A   Clear
9:55 AM 46.8 °F - 30.7 °F 54% 29.93 in 10.0 mi WSW 12.7 mph - N/A   Clear
10:15 AM 49.8 °F - 30.6 °F 48% 29.93 in 10.0 mi WSW 16.1 mph 21.9 mph N/A   Clear
10:35 AM 52.0 °F - 31.3 °F 45% 29.93 in 10.0 mi West 12.7 mph - N/A   Clear
10:55 AM 53.4 °F - 31.5 °F 43% 29.92 in 10.0 mi WSW 10.4 mph - N/A   Clear
11:15 AM 55.6 °F - 32.0 °F 41% 29.92 in 10.0 mi WSW 11.5 mph - N/A   Clear
11:35 AM 56.7 °F - 32.0 °F 39% 29.91 in 10.0 mi WSW 11.5 mph - N/A   Clear
11:55 AM 58.8 °F - 31.5 °F 36% 29.91 in 10.0 mi WSW 10.4 mph - N/A   Clear
12:15 PM 59.5 °F - 31.3 °F 34% 29.90 in 10.0 mi WSW 10.4 mph - N/A   Clear
12:55 PM 64.4 °F - 30.6 °F 28% 29.89 in 10.0 mi SW 9.2 mph - N/A   Clear
1:15 PM 66.4 °F - 29.5 °F 25% 29.88 in 10.0 mi WSW 9.2 mph - N/A   Clear
1:35 PM 68.5 °F - 28.8 °F 23% 29.87 in 10.0 mi WSW 9.2 mph 16.1 mph N/A   Clear
1:55 PM 70.0 °F - 25.2 °F 19% 29.85 in 10.0 mi SW 11.5 mph 17.3 mph N/A   Clear
2:15 PM 71.6 °F - 21.9 °F 15% 29.84 in 10.0 mi WSW 11.5 mph 20.7 mph N/A   Clear
2:35 PM 72.3 °F - 20.7 °F 14% 29.83 in 10.0 mi WSW 16.1 mph 21.9 mph N/A   Clear
2:55 PM 73.2 °F - 21.2 °F 14% 29.82 in 10.0 mi West 17.3 mph 20.7 mph N/A   Clear
3:15 PM 73.0 °F - 20.8 °F 14% 29.81 in 10.0 mi WSW 15.0 mph - N/A   Clear
3:35 PM 74.3 °F - 21.2 °F 14% 29.81 in 10.0 mi WSW 13.8 mph 20.7 mph N/A   Clear
3:55 PM 74.5 °F - 20.7 °F 13% 29.80 in 10.0 mi WSW 13.8 mph - N/A   Clear
4:15 PM 74.5 °F - 19.8 °F 13% 29.80 in 10.0 mi WSW 13.8 mph - N/A   Clear
4:35 PM 75.2 °F - 19.9 °F 13% 29.79 in 10.0 mi WSW 12.7 mph - N/A   Clear
4:55 PM 75.4 °F - 19.2 °F 12% 29.79 in 10.0 mi WSW 12.7 mph 16.1 mph N/A   Clear
5:15 PM 74.5 °F - 18.7 °F 12% 29.79 in 10.0 mi WSW 11.5 mph 18.4 mph N/A   Clear
5:35 PM 72.9 °F - 19.0 °F 13% 29.79 in 10.0 mi West 13.8 mph - N/A   Clear
5:55 PM 71.8 °F - 18.9 °F 13% 29.79 in 10.0 mi West 9.2 mph - N/A   Clear
6:15 PM 69.4 °F - 19.9 °F 15% 29.79 in 10.0 mi West 6.9 mph - N/A   Clear
6:35 PM 68.0 °F - 20.1 °F 16% 29.79 in 10.0 mi West 4.6 mph - N/A   Clear
6:55 PM 66.4 °F - 21.7 °F 18% 29.79 in 10.0 mi West 4.6 mph - N/A   Clear
7:35 PM 58.8 °F - 23.7 °F 26% 29.79 in 10.0 mi SW 3.5 mph - N/A   Clear
7:55 PM 58.8 °F - 23.5 °F 26% 29.79 in 10.0 mi SSW 3.5 mph - N/A   Clear
8:15 PM 57.4 °F - 23.4 °F 27% 29.79 in 10.0 mi SW 4.6 mph - N/A   Clear
8:35 PM 57.2 °F - 23.5 °F 27% 29.79 in 10.0 mi SW 4.6 mph - N/A   Clear
8:55 PM 57.9 °F - 23.0 °F 26% 29.80 in 10.0 mi SW 4.6 mph - N/A   Clear
9:15 PM 56.1 °F - 23.0 °F 28% 29.80 in 10.0 mi SW 5.8 mph - N/A   Clear
9:35 PM 53.1 °F - 23.4 °F 32% 29.81 in 10.0 mi WSW 3.5 mph - N/A   Clear
9:55 PM 52.0 °F - 23.4 °F 33% 29.81 in 10.0 mi SSW 8.1 mph - N/A   Clear
10:15 PM 54.3 °F - 22.6 °F 29% 29.81 in 10.0 mi SW 6.9 mph - N/A   Clear
10:55 PM 53.2 °F - 23.9 °F 32% 29.83 in 10.0 mi SW 4.6 mph - N/A   Clear
11:15 PM 53.6 °F - 25.7 °F 34% 29.83 in 10.0 mi WSW 3.5 mph - N/A   Clear
11:35 PM 55.2 °F - 27.3 °F 34% 29.83 in 10.0 mi WNW 6.9 mph - N/A   Clear